Concord, CA

8:16 PM PST on January 23, 2018 (GMT -0800)
Buchanan

Weather History for KCCR - October, 2013

Change the Weather History Date:

Tuesday, October 1, 2013

  Actual Average Record
Temperature  
Mean Temperature 64 °F 68 °F  
Max Temperature 75 °F 81 °F 99 °F (2001)
Min Temperature 53 °F 54 °F 47 °F (2009)
Degree Days  
Heating Degree Days 1    
Month to date heating degree days 1  
Since 1 July heating degree days 19  
Cooling Degree Days 0    
Month to date cooling degree days 0  
Year to date cooling degree days 819  
Growing Degree Days 14 (Base 50)    
Moisture  
Dew Point 46 °F    
Average Humidity 59    
Maximum Humidity 83    
Minimum Humidity 35    
Precipitation  
Precipitation 0.00 in - 0.00 in (2018)
Month to date precipitation 0.00  
Year to date precipitation 2.72  
Since 1 July precipitation 0.66  
Sea Level Pressure  
Sea Level Pressure 29.93 in    
Wind  
Wind Speed 7 mph (WSW)    
Max Wind Speed 13 mph    
Max Gust Speed 17 mph    
Visibility 10 miles    
Events      
T = Trace of Precipitation, MM = Missing Value Source: NWS Daily Summary

Daily Weather History Graph

Daily Weather History Graph

Search for Another Location

Airport or City:

Trip Planner

Search our weather history database for the weather conditions in past years. The results will help you decide how hot, cold, wet, or windy it might be!

Date:

Astronomy

Oct. 01, 2013 Rise Set
Actual Time 7:04 AM PDT 6:50 PM PDT
Civil Twilight 6:37 AM PDT 7:16 PM PDT
Nautical Twilight 6:07 AM PDT 7:47 PM PDT
Astronomical Twilight 5:36 AM PDT 8:18 PM PDT
Moon 3:46 AM PDT (10/1) 4:55 PM PDT (10/1)
Length of Visible Light 12h 38m
Length of Day
11h 46m
Waning Crescent, 11% of the Moon is Illuminated
Oct 1
Waning Crescent
Oct 4
New
Oct 11
First Quarter
Oct 18
Full
Oct 26
Last Quarter

Hourly Weather History & Observations

Time (PDT) Temp. Dew Point Humidity Pressure Visibility Wind Dir Wind Speed Gust Speed Precip Events Conditions
12:53 AM 57.9 °F 43.0 °F 58% 29.94 in 10.0 mi Calm Calm - N/A   Clear
1:53 AM 57.9 °F 42.1 °F 56% 29.95 in 10.0 mi SW 5.8 mph - N/A   Clear
2:53 AM 55.0 °F 43.0 °F 64% 29.94 in 10.0 mi SSW 9.2 mph - N/A   Clear
3:53 AM 55.0 °F 42.1 °F 62% 29.94 in 10.0 mi South 8.1 mph - N/A   Clear
4:53 AM 54.0 °F 44.1 °F 69% 29.93 in 10.0 mi South 8.1 mph - N/A   Clear
5:53 AM 53.1 °F 46.0 °F 77% 29.94 in 10.0 mi South 8.1 mph - N/A   Clear
6:53 AM 53.1 °F 48.0 °F 83% 29.95 in 10.0 mi SSW 11.5 mph - N/A   Clear
7:53 AM 54.0 °F 48.9 °F 83% 29.96 in 10.0 mi SSW 10.4 mph - N/A   Clear
8:53 AM 57.0 °F 50.0 °F 77% 29.98 in 10.0 mi South 9.2 mph - N/A   Clear
9:53 AM 61.0 °F 46.9 °F 60% 29.98 in 10.0 mi West 6.9 mph - N/A   Clear
10:53 AM 64.0 °F 46.9 °F 54% 29.97 in 10.0 mi West 5.8 mph - N/A   Clear
11:53 AM 66.9 °F 46.0 °F 47% 29.96 in 10.0 mi Variable 3.5 mph - N/A   Clear
12:53 PM 69.1 °F 45.0 °F 42% 29.95 in 10.0 mi NNW 11.5 mph - N/A   Clear
1:53 PM 72.0 °F 43.0 °F 35% 29.93 in 10.0 mi West 9.2 mph - N/A   Clear
2:53 PM 73.0 °F 45.0 °F 37% 29.91 in 10.0 mi North 6.9 mph - N/A   Clear
3:53 PM 73.9 °F 46.9 °F 38% 29.90 in 10.0 mi NNW 10.4 mph - N/A   Clear
4:53 PM 75.0 °F 46.9 °F 37% 29.88 in 10.0 mi North 8.1 mph - N/A   Clear
5:53 PM 73.0 °F 46.0 °F 38% 29.88 in 10.0 mi West 6.9 mph - 0.00 in   Clear
6:53 PM 69.1 °F 46.0 °F 44% 29.87 in 10.0 mi West 6.9 mph - N/A   Clear
7:53 PM 66.0 °F 46.0 °F 48% 29.88 in 10.0 mi Calm Calm - N/A   Clear
8:53 PM 63.0 °F 48.0 °F 58% 29.89 in 10.0 mi Calm Calm - N/A   Clear
9:53 PM 61.0 °F 48.0 °F 62% 29.90 in 10.0 mi Calm Calm - N/A   Clear
10:53 PM 60.1 °F 48.0 °F 64% 29.90 in 10.0 mi Calm Calm - N/A   Clear
11:53 PM 57.0 °F 48.0 °F 72% 29.90 in 10.0 mi SSE 5.8 mph - N/A   Clear